Flag for U.S.A. Weather past 2 weeks in Raleigh, North Carolina, U.S.A.

Now
76 °F

Partly cloudy.


Feels Like: 76 °F
Forecast: 71 / 85 °F
Wind: 10 mph from Southwest

Location: Raleigh-Durham International Airport

Current Time: Jul 24, 2014 at 4:43:37 AM

Latest Report: Jul 24, 2014 at 3:51 AM


Visibility: 10 mi

Pressure: 29.88 "Hg

Humidity: 88%

Dew point: 72 °F

Location of RaleighLocation

Historic Weather in Raleigh — Graph

°F

Raleigh temperature yesterday

Maximum temperature yesterday: 92 °F (at 3:51 PM)
Minimum temperature yesterday: 71 °F (at 5:51 AM)
Average temperature yesterday: 82 °F

Past Weeks' High & Low Weather Summary

 TemperatureHumidityPressure
High97 °F (Jul 14, 2:51 PM)94% (Jul 12, 3:00 AM)30.22 "Hg (Jul 12, 3:00 AM)
Low61 °F (Jul 17, 5:51 AM)36% (Jul 18, 4:51 PM)29.76 "Hg (Jul 15, 3:51 PM)
Average77 °F72%30.05 "Hg
* Reported Jul 9 2:51 AM — Jul 24 2:51 AM, Raleigh, Weather by CustomWeather, © 2014

Note: Actual official high and low records may vary slightly from our data, if they occured in-between our weather recording intervals... More about our weather records

Advertising

Raleigh weather history for previous 24 hours

 ConditionsComfort  
Time TempWeatherWind HumidityBarometerVisibility
2:51 AM
Jul 24
76 °FPassing clouds.9 mph88%29.90 "Hg10 mi
1:51 AM76 °FPassing clouds.8 mph85%29.90 "Hg10 mi
12:51 AM76 °FPassing clouds.9 mph85%29.91 "Hg10 mi
11:51 PM
Jul 23
76 °FPassing clouds.3 mph82%29.91 "Hg10 mi
10:51 PM76 °FPassing clouds.6 mph82%29.91 "Hg10 mi
9:51 PM77 °FPassing clouds.5 mph79%29.92 "Hg10 mi
8:51 PM79 °FScattered clouds.8 mph72%29.92 "Hg10 mi
7:51 PM83 °FScattered clouds.14 mph65%29.91 "Hg10 mi
6:51 PM88 °FBroken clouds.13 mph59%29.91 "Hg10 mi
5:51 PM91 °FScattered clouds.10 mph50%29.90 "Hg10 mi
4:51 PM92 °FScattered clouds.12 mph51%29.92 "Hg10 mi
3:51 PM92 °FScattered clouds.12 mph52%29.95 "Hg10 mi
2:51 PM91 °FScattered clouds.8 mph50%29.97 "Hg10 mi
1:51 PM90 °FScattered clouds.7 mph56%29.99 "Hg10 mi
12:51 PM89 °FScattered clouds.3 mph59%30.01 "Hg10 mi
11:51 AM86 °FScattered clouds.6 mph61%30.03 "Hg10 mi
10:51 AM85 °FPartly sunny.5 mph68%30.04 "Hg10 mi
9:51 AM82 °FPartly sunny.5 mph72%30.06 "Hg10 mi
8:51 AM77 °FBroken clouds.5 mph88%30.07 "Hg10 mi
5:51 AM71 °FFog.No wind93%30.05 "Hg1 mi
5:02 AM72 °FFog.No wind94%30.06 "Hg2 mi
Weather by CustomWeather, © 2014

See weather overviewHow to use our weather pages